Regional Weather Roundup
Issued by NWS

Home | Current Version | Previous Version | Graphics & Text | Print | Product List | Glossary On
Versions: 1 2 3 4 5 6 7 8 9 10 11 12 13 14 15 16 17 18 19 20 21 22 23 24 25 26 27 28 29 30 31 32 33 34 35 36 37 38 39 40 41 42 43 44 45 46 47 48 49 50
000
ASUS45 KABQ 270510
RWRNM
NEW MEXICO REGIONAL WEATHER ROUNDUP
NATIONAL WEATHER SERVICE ALBUQUERQUE NM
1100 PM MDT MON SEP 26 2016

NOTE: "FAIR" MEANS FEW OR NO CLOUDS BELOW 12,000 FEET AGL WITH NO
       SIGNIFICANT WEATHER OR OBSTRUCTIONS TO VISION.

      THIS PRODUCT IS RELEASED AS TWO VERSIONS.  ONE VERSION NEAR
      THE TOP OF THE HOUR CONTAINING PRELIMINARY DATA FROM ALBUQUERQUE
      AND OTHER STATIONS.  A FINAL VERSION WITH ADDITIONAL DATA IS
      ISSUED ABOUT 10 MINUTES AFTER THE HOUR.

NMZ501-503-504-510>518-270600-
NORTHWEST PLATEAU/NORTHCENTRAL MOUNTAINS

CITY           SKY/WX    TMP DP  RH WIND       PRES   REMARKS
FARMINGTON     FAIR      62  32  32 SE7       30.29S
LOS ALAMOS     FAIR      54  28  37 SW7       30.44S
SANTA FE       FAIR      52  32  46 S7        30.39S
TAOS           FAIR      45  28  53 N6        30.43S
ANGEL FIRE     FAIR      35  31  84 CALM      30.50S

$$
NMZ402-403-502-505>509-270600-
WESTCENTRAL MOUNTAINS/SOUTHWEST MOUNTAINS

CITY           SKY/WX    TMP DP  RH WIND       PRES   REMARKS
GALLUP         FAIR      48  24  39 E7        30.36S
SILVER CITY    CLOUDY    48  47  97 SE6       30.35S

$$
NMZ407-409-411-412-270600-
SOUTHERN DESERTS

CITY           SKY/WX    TMP DP  RH WIND       PRES   REMARKS
DEMING         CLOUDY    53  50  89 E6        30.32F
LAS CRUCES     CLOUDY    54  50  87 CALM      30.34F
HOLLOMAN AFB   LGT RAIN  55  52  91 SW2       30.31S
ALAMOGORDO     MOCLDY    54  52  94 CALM        N/A
T OR C         RAIN      52  49  89 SW5       30.34S FOG

$$
NMZ519>523-270600-
CENTRAL VALLEYS/CENTRAL HIGHLANDS

CITY           SKY/WX    TMP DP  RH WIND       PRES   REMARKS
ALBUQUERQUE    FAIR      60  34  37 SE9       30.34R
DOUBLE EAGLE   FAIR      52  32  46 CALM      30.37S
MORIARTY ARPT  FAIR      43  32  64 SW5       30.41S
CLINES CORNERS FAIR      45  34  65 S10       30.44R
BELEN          FAIR      58  31  36 S6        30.35R
SOCORRO        FAIR      59  40  50 SE6       30.33S

$$
NMZ524>526-539-540-270600-
SOUTHCENTRAL MOUNTAINS

CITY           SKY/WX    TMP DP  RH WIND       PRES   REMARKS
RUIDOSO        MOCLDY    50  37  62 S3        30.44S

$$
NMZ527>531-270600-
NORTHEAST HIGHLANDS/NORTHEAST PLAINS

CITY           SKY/WX    TMP DP  RH WIND       PRES   REMARKS
LAS VEGAS      FAIR      48  32  53 SW5       30.42S
RATON          FAIR      45  34  65 N7        30.38F
CLAYTON        FAIR      52  37  56 W9        30.32S

$$
NMZ532>537-270600-
EASTCENTRAL PLAINS

CITY           SKY/WX    TMP DP  RH WIND       PRES   REMARKS
TUCUMCARI      FAIR      54  37  52 SW6       30.30R
CANNON AFB     CLEAR     56  43  61 S1        30.32S
CLOVIS AIRPORT FAIR      55  41  58 CALM      30.32S

$$
NMZ028-029-538-270600-
SOUTHEAST PLAINS

CITY           SKY/WX    TMP DP  RH WIND       PRES   REMARKS
ROSWELL        MOCLDY    57  47  69 SE6       30.30F
ARTESIA        FAIR      55  55 100 SW9       30.31S
CARLSBAD       CLOUDY    58  54  86 SW3       30.30S
HOBBS          FAIR      59  48  67 SW3       30.32S


$$




USA.gov is the U.S. government's official web portal to all federal, state and local government web resources and services.